Back to catalog

STARLINK-35211

AliveCommunicationsVLEO
NORAD 65757·PAYLOAD·🇺🇸 United States

Launched Sep 25, 2025 from Cape Canaveral Space Force Station

Loading…

Next Passes (next 24 hours)

TLE

FreshSource: CelesTrak SupGP

Epoch: Sep 14, 2026, 15:39 UTC

1 65757C 25216Z   26257.65256944  .00063466  00000+0  18756-2 0  2579
2 65757  53.1582 172.7788 0001253  89.4563  86.4588 15.34351246    16

Track STARLINK-35211 in real time with AllMySat

Download on the App Store